Stagione 2024 · Round 20

Mexico City Grand Prix

2024-10-27 · Autódromo Hermanos Rodríguez · Mexico · Mexico City Grand Prix · 71Lap · 305.354km
Ferrari 1:40:55.800
Vittoria di squadra 41pt P1 · P3 1-3
McLaren +4.705
Ferrari +34.387
Giro veloce
1:18.336 · L71
Ritiro
3
Fernando Alonso L15 Alexander Albon L0 Yuki Tsunoda L0
Meteo
20°/36°
media aria/pista · asciutto · umidità 51%
Safety car
1
schierata al giro L1
Uso gomme Direzione gara
Storylines · This Grand Prix & circuit
Conversione pole-vittoria 12/25 48%
Most DNFs · all-time P13
Most SC/VSC · all-time P14
Circuito Info
Autódromo Hermanos Rodríguez Mexico City, Mexico
71Lap 305.354km 26 gare held (1963–) Record del giro 1:17.774 · Valtteri Bottas (2021)
Record Watch · Active drivers ranked at this Grand Prix
P1 Max Verstappen 3 vittorie · GP #1
P2 Lando Norris 1 vittorie · → Max Verstappen -2
P2 Carlos Sainz 1 vittorie · → Max Verstappen -2
P1 Valtteri Bottas 1 · GP #1
P1 Charles Leclerc 1 · GP #1
P1 Lando Norris 1 · GP #1
P1 Max Verstappen 4 · GP #1
P1 Fernando Alonso 5 partenze · GP #1
P1 Pierre Gasly 5 partenze · GP #1
P1 Lewis Hamilton 5 partenze · GP #1
Gara Trace · position by lap
SC · giri 1–6 partenza da fermo SG 1 7 13 19 25 31 37 43 49 55 61 67 FIN Sainz · sosta ai box L32 Sainz SAI Sainz SAI Norris · sosta ai box L30 Norris NOR Norris NOR Leclerc · sosta ai box L31 Leclerc · sosta ai box L69 Leclerc LEC Leclerc LEC Hamilton · sosta ai box L28 Hamilton HAM Hamilton HAM Russell · sosta ai box L31 Russell RUS Russell RUS Verstappen · sosta ai box L26 · penalità scontata Verstappen VER Verstappen VER Magnussen · sosta ai box L30 Magnussen MAG Magnussen MAG Piastri · sosta ai box L39 Piastri PIA Piastri PIA Hülkenberg · sosta ai box L29 Hülkenberg HUL Hülkenberg HUL Gasly · sosta ai box L28 Gasly GAS Gasly GAS Stroll · sosta ai box L26 Stroll STR Stroll STR Colapinto · sosta ai box L47 Colapinto · +10s aggiunto a fine gara Colapinto COL Colapinto COL Ocon · sosta ai box L48 Ocon OCO Ocon OCO Bottas · sosta ai box L49 Bottas BOT Bottas BOT Zhou · sosta ai box L43 Zhou ZHO Zhou ZHO Lawson · sosta ai box L39 Lawson · sosta ai box L65 Lawson LAW Lawson LAW Pérez · sosta ai box L20 · penalità scontata Pérez · sosta ai box L43 Pérez · sosta ai box L68 Pérez PER Pérez PER Alonso · ritiro L15 Alonso ALO Alonso ALO Albon · ritiro L0 Albon ALB Albon ALB Tsunoda · ritiro L0 Tsunoda TSU Tsunoda TSU
SC·VSC sosta ai box penalità scontata ai box SG Griglia di partenza FIN classifica ufficiale penalità aggiunta a fine gara vettura ferma posizione a ogni giro (dal 1996)
PosPilotaTeamGrigliaGiroTempo / StatoPunti
1 55 Carlos Sainz Ferrari 1 71 1:40:55.800 25
2 4 Lando Norris McLaren 3 71 +4.705 18
3 16 Charles Leclerc FL Ferrari 4 71 +34.387 16
4 44 Lewis Hamilton Mercedes 6 71 +44.780 12
5 63 George Russell Mercedes 5 71 +48.536 10
6 1 Max Verstappen Red Bull 2 71 +59.558 8
7 20 Kevin Magnussen Haas F1 Team 7 71 +1:03.642 6
8 81 Oscar Piastri McLaren 17 71 +1:04.928 4
9 27 Nico Hülkenberg Haas F1 Team 10 70 +2.720 2
10 10 Pierre Gasly Alpine F1 Team 8 70 +18.587 1
11 18 Lance Stroll Aston Martin 14 70 +25.072
12 43 Franco Colapinto Williams 16 70 +37.497
13 31 Esteban Ocon Alpine F1 Team 0 70 +39.663
14 77 Valtteri Bottas Sauber 15 70 +42.227
15 24 Guanyu Zhou Sauber 19 70 +1:01.722
16 30 Liam Lawson RB F1 Team 12 70 +1:04.466
17 11 Sergio Pérez Red Bull 18 70 +1:13.284
R 14 Fernando Alonso Aston Martin 13 15 Retired
R 23 Alexander Albon Williams 9 0 Retired
R 22 Yuki Tsunoda RB F1 Team 11 0 Retired
PosPilotaTeamQ1Q2Q3Distacco dalla pole
1 55 Carlos Sainz Ferrari 1:16.778 1:16.515 1:15.946 POLE Q3
2 1 Max Verstappen Red Bull 1:16.803 1:16.514 1:16.171 +0.225 Q3
3 4 Lando Norris McLaren 1:16.505 1:16.301 1:16.260 +0.314 Q3
4 16 Charles Leclerc Ferrari 1:16.972 1:16.641 1:16.265 +0.319 Q3
5 63 George Russell Mercedes 1:17.194 1:16.937 1:16.356 +0.410 Q3
6 44 Lewis Hamilton Mercedes 1:17.306 1:16.973 1:16.651 +0.705 Q3
7 20 Kevin Magnussen Haas F1 Team 1:17.125 1:17.003 1:16.886 +0.940 Q3
8 10 Pierre Gasly Alpine F1 Team 1:17.149 1:17.048 1:16.892 +0.946 Q3
9 23 Alexander Albon Williams 1:17.189 1:16.988 1:17.065 +1.042 Q2
10 27 Nico Hülkenberg Haas F1 Team 1:17.186 1:16.995 1:17.365 +1.049 Q2
11 22 Yuki Tsunoda RB F1 Team 1:17.182 1:17.129 +1.183 Q2
12 30 Liam Lawson RB F1 Team 1:17.380 1:17.162 +1.216 Q2
13 14 Fernando Alonso Aston Martin 1:17.307 1:17.168 +1.222 Q2
14 18 Lance Stroll Aston Martin 1:17.407 1:17.294 +1.348 Q2
15 77 Valtteri Bottas Sauber 1:17.393 1:17.817 +1.447 Q1
16 43 Franco Colapinto Williams 1:17.558 +1.612 Q1
17 81 Oscar Piastri McLaren 1:17.597 +1.651 Q1
18 11 Sergio Pérez Red Bull 1:17.611 +1.665 Q1
19 31 Esteban Ocon Alpine F1 Team 1:17.617 +1.671 Q1
20 24 Guanyu Zhou Sauber 1:18.072 +2.126 Q1
Griglia di partenza
Ufficiale
11
12
14
19
24 Guanyu Zhou ▲1
PIT
31 Esteban Ocon partenza dalla dalla pit lane
Changes made during Parc Ferme
Final grid as classificato, including any dalla pit lane partenze. Source: Jolpica-F1. The arrow compares the grid slot with the le qualifiche classification; hover a drop to see the stewards document behind it.
Nessun dato per questa sessione.
PosPilotaGiro miglioreDistaccoGiri
1 63 George Russell 1:17.998 24
2 55 Carlos Sainz 1:18.315 +0.317 25
3 22 Yuki Tsunoda 1:18.699 +0.701 24
4 1 Max Verstappen 1:18.839 +0.841 14
5 27 Nico Hülkenberg 1:18.904 +0.906 18
6 81 Oscar Piastri 1:18.958 +0.960 24
7 31 Esteban Ocon 1:18.996 +0.998 22
8 77 Valtteri Bottas 1:19.048 +1.050 24
9 30 Liam Lawson 1:19.093 +1.095 26
10 11 Sergio Pérez 1:19.094 +1.096 23
11 43 Franco Colapinto 1:19.109 +1.111 21
12 12 Andrea Kimi Antonelli 1:19.200 +1.202 19
13 20 Kevin Magnussen 1:19.335 +1.337 23
14 10 Pierre Gasly 1:19.340 +1.342 20
15 18 Lance Stroll 1:19.600 +1.602 18
16 23 Alexander Albon 1:19.812 +1.814 7
17 50 Oliver Bearman 1:21.256 +3.258 7
Classified by best lap · source OpenF1 (2023+)
PosPilotaGiro miglioreDistaccoGiri
1 55 Carlos Sainz 1:17.699 34
2 81 Oscar Piastri 1:17.877 +0.178 30
3 22 Yuki Tsunoda 1:17.878 +0.179 30
4 16 Charles Leclerc 1:17.887 +0.188 31
5 4 Lando Norris 1:17.948 +0.249 36
6 20 Kevin Magnussen 1:18.239 +0.540 34
7 44 Lewis Hamilton 1:18.279 +0.580 36
8 77 Valtteri Bottas 1:18.351 +0.652 32
9 11 Sergio Pérez 1:18.392 +0.693 32
10 30 Liam Lawson 1:18.560 +0.861 29
11 14 Fernando Alonso 1:18.579 +0.880 35
12 27 Nico Hülkenberg 1:18.621 +0.922 34
13 31 Esteban Ocon 1:18.656 +0.957 30
14 18 Lance Stroll 1:18.890 +1.191 34
15 43 Franco Colapinto 1:18.908 +1.209 30
16 10 Pierre Gasly 1:18.942 +1.243 30
17 24 Guanyu Zhou 1:18.980 +1.281 37
18 63 George Russell 1:19.041 +1.342 4
19 1 Max Verstappen 1:28.234 +10.535 4
Classified by best lap · source OpenF1 (2023+)
PosPilotaGiro miglioreDistaccoGiri
1 81 Oscar Piastri 1:16.492 18
2 4 Lando Norris 1:16.551 +0.059 18
3 55 Carlos Sainz 1:16.832 +0.340 21
4 1 Max Verstappen 1:17.003 +0.511 26
5 44 Lewis Hamilton 1:17.060 +0.568 21
6 16 Charles Leclerc 1:17.232 +0.740 24
7 22 Yuki Tsunoda 1:17.302 +0.810 20
8 63 George Russell 1:17.341 +0.849 28
9 20 Kevin Magnussen 1:17.474 +0.982 19
10 30 Liam Lawson 1:17.494 +1.002 23
11 23 Alexander Albon 1:17.511 +1.019 19
12 77 Valtteri Bottas 1:17.639 +1.147 25
13 43 Franco Colapinto 1:17.712 +1.220 18
14 11 Sergio Pérez 1:17.787 +1.295 19
15 14 Fernando Alonso 1:17.798 +1.306 23
16 27 Nico Hülkenberg 1:17.819 +1.327 20
17 18 Lance Stroll 1:17.900 +1.408 26
18 31 Esteban Ocon 1:18.324 +1.832 19
19 24 Guanyu Zhou 1:18.428 +1.936 18
20 10 Pierre Gasly 1:18.454 +1.962 20
Classified by best lap · source OpenF1 (2023+)
#PilotaTempo sul giroGiro
1 16 Charles Leclerc 1:18.336 L71
2 11 Sergio Pérez 1:19.209 L70
3 30 Liam Lawson 1:19.502 L67
4 4 Lando Norris 1:19.691 L68
5 4 Lando Norris 1:19.721 L70
6 4 Lando Norris 1:19.858 L63
7 4 Lando Norris 1:19.922 L69
8 4 Lando Norris 1:19.972 L67
9 4 Lando Norris 1:20.045 L61
10 81 Oscar Piastri 1:20.064 L65
Top 10 più veloce race giri — #1 is the più veloce lap of la gara(FL).
Pit stop · a confronto
25s 30s 35s 40s 45s mediana 22.7s Oscar Piastri · L39 · 21.825s Sergio Pérez · L68 · 21.920s Lando Norris · L30 · 22.111s Sergio Pérez · L43 · 22.174s Carlos Sainz · L32 · 22.249s George Russell · L31 · 22.462s Valtteri Bottas · L49 · 22.505s Lewis Hamilton · L28 · 22.538s Liam Lawson · L39 · 22.586s Lance Stroll · L26 · 22.592s Charles Leclerc · L69 · 22.690s Charles Leclerc · L31 · 22.860s Guanyu Zhou · L43 · 22.935s Nico Hülkenberg · L29 · 23.077s Pierre Gasly · L28 · 23.204s Esteban Ocon · L48 · 23.245s Kevin Magnussen · L30 · 23.332s Franco Colapinto · L47 · 23.895s Sergio Pérez · L20 · 27.730s · penalità scontata Liam Lawson · L65 · 30.299s Max Verstappen · L26 · 43.730s · penalità scontata
più veloce 21.825s Oscar Piastri più lenta 43.730s Max Verstappen penalità scontata tempo di transito nella dalla pit lane — un punto per sosta
PilotaSostaGiroTempoTransito in dalla pit lane
11 Sergio Pérez 1 20 14:35:55 27.730s
1 Max Verstappen 1 26 14:43:43 43.730s
18 Lance Stroll 1 26 14:44:17 22.592s
10 Pierre Gasly 1 28 14:46:56 23.204s
44 Lewis Hamilton 1 28 14:46:42 22.538s
27 Nico Hülkenberg 1 29 14:48:15 23.077s
20 Kevin Magnussen 1 30 14:49:36 23.332s
4 Lando Norris 1 30 14:49:15 22.111s
63 George Russell 1 31 14:50:44 22.462s
16 Charles Leclerc 1 31 14:50:30 22.860s
55 Carlos Sainz 1 32 14:51:43 22.249s
30 Liam Lawson 1 39 15:02:15 22.586s
81 Oscar Piastri 1 39 15:02:09 21.825s
24 Guanyu Zhou 1 43 15:08:09 22.935s
11 Sergio Pérez 2 43 15:08:13 22.174s
43 Franco Colapinto 1 47 15:13:22 23.895s
31 Esteban Ocon 1 48 15:14:59 23.245s
77 Valtteri Bottas 1 49 15:16:16 22.505s
30 Liam Lawson 2 65 15:38:15 30.299s
11 Sergio Pérez 3 68 15:42:41 21.920s
16 Charles Leclerc 2 69 15:42:04 22.690s
soste
SG 10 20 30 40 50 60 L71
55
1
M31
H40
4
1
M29
H42
16
2
M30
H38
S3
44
1
M27
H44
63
1
M30
H41
1
1
M25
H46
20
1
M29
H42
81
1
M38
H33
27
1
M28
H42
10
1
M27
H43
18
1
M25·+1
H45·+1
43
1
H46
M24
31
1
H47
M23
77
1
H48·+1
M22
24
1
H42·+1
M28·+1
30
2
H38
M26
S6
11
3
H19
M23
M25
S3
14
0
M15·+1
23
0
M1
22
0
M1
S Soft M Medium H Hard I Intermediate W Wet SC·VSC sosta ai box penalità scontata ai box
Gara · larghezza barra = giri su quel treno, ·+N = montato usato con N giri pregressi · fonte OpenF1 (2023+)
Mescole designate per questo Gran Premio
C3 Dura C4 Media C5 Morbida
Pirelli designa tre delle sue mescole slick per ogni evento; più alto è il numero C, più morbida è la gomma. Documento FIA ↗
Più posizioni guadagnate in pista
81
+18
P17→P8
30
+12
P12→P16
43
+11
P16→P12
31
+11
P—→P13
77
+11
P15→P14
1
+9
P2→P6
27
+8
P10→P9
24
+8
P19→P15
Più posizioni perse
Liam Lawson −18 Max Verstappen −14 Valtteri Bottas −10
Gara · Somma delle posizioni guadagnate in pista giro per giro — esclusi il giro di partenza e i propri giri ai box. Dati dei giri di gara dal 1996.
PilotaTipoGiroScontataAssegnataMotivo
11 Sergio Pérez No further action Alleged forcing another driver off the track. (No further action.) Doc 49 ↗
Alleged forcing another driver off the track. (No further action.) Doc 49 ↗
11 Sergio Pérez No further action Alleged forcing another driver off the track. Alleged Leaving the track and gaining a lasting advantage. (No further action) Doc 45 ↗
Alleged forcing another driver off the track. Alleged Leaving the track and gaining a lasting advantage. (No further action) Doc 45 ↗
11 Sergio Pérez Time penalty 5 20 +5s False Start. (5 second time penalty.) Doc 42 ↗
Giro 5 · Scontata 20 · +5s False Start. (5 second time penalty.) Doc 42 ↗
1 Max Verstappen Time penalty 13 26 +10s · 2pt Forcing another driver off the track. (10 second time penalty. 2 penalty points (total of 6 for the 12 month period).) Doc 47 ↗
Giro 13 · Scontata 26 · +10s · 2pt Forcing another driver off the track. (10 second time penalty. 2 penalty points (total of 6 for the 12 month period).) Doc 47 ↗
1 Max Verstappen Time penalty 19 26 +10s Leaving the track and gaining a lasting advantage. (10 second time penalty.) Doc 44 ↗
Giro 19 · Scontata 26 · +10s Leaving the track and gaining a lasting advantage. (10 second time penalty.) Doc 44 ↗
43 Franco Colapinto Time penalty 71 A fine gara +10s · 2pt Car 43 collided with Car 30 at the exit of Turn 2. (10 second time penalty (10 seconds added to elapsed Gara time). 2 penalty points (total of 2 for the) Doc 50 ↗
Giro 71 · Scontata A fine gara · +10s · 2pt Car 43 collided with Car 30 at the exit of Turn 2. (10 second time penalty (10 seconds added to elapsed Gara time). 2 penalty points (total of 2 for the) Doc 50 ↗
Giro = giro in cui è stata inflitta la penalità · Scontata = giro in cui è stata scontata ai box (vuoto: sommata al tempo di gara)
Time, drive-through and stop-go penalties come from race control messages (OpenF1, 2023+). Griglia penalties never appear there — the stewards publish them as documents after the session — so they are worked back from the starting grid against the le qualifiche classification, which gives places actually lost rather than the figure written in the decision.
PilotaTipoGiroScontataAssegnataMotivo
31 Esteban Ocon Pit lane start The following Power Unit elements have been usati: 3rd Energy Store (ES) 3rd Control Electronics (CE) All Power Unit elements were replaced without the approval of the FIA Technical Delegate during Parc Ferme. (Required to start the Gara from the dalla pit lane.) Doc 39 ↗
The following Power Unit elements have been usati: 3rd Energy Store (ES) 3rd Control Electronics (CE) All Power Unit elements were replaced without the approval of the FIA Technical Delegate during Parc Ferme. (Required to start the Gara from the dalla pit lane.) Doc 39 ↗
Giro = giro in cui è stata inflitta la penalità · Scontata = giro in cui è stata scontata ai box (vuoto: sommata al tempo di gara)
Time, drive-through and stop-go penalties come from race control messages (OpenF1, 2023+). Griglia penalties never appear there — the stewards publish them as documents after the session — so they are worked back from the starting grid against the le qualifiche classification, which gives places actually lost rather than the figure written in the decision.
PilotaTipoGiroScontataAssegnataMotivo
23 Alexander Albon No further action Incident with Car 38 in turn 9. (No further action.) Doc 19 ↗
Incident with Car 38 in turn 9. (No further action.) Doc 19 ↗
50 Oliver Bearman No further action Incident with Car 23 in turn 9. (No further action.) Doc 18 ↗
Incident with Car 23 in turn 9. (No further action.) Doc 18 ↗
Giro = giro in cui è stata inflitta la penalità · Scontata = giro in cui è stata scontata ai box (vuoto: sommata al tempo di gara)
Time, drive-through and stop-go penalties come from race control messages (OpenF1, 2023+). Griglia penalties never appear there — the stewards publish them as documents after the session — so they are worked back from the starting grid against the le qualifiche classification, which gives places actually lost rather than the figure written in the decision.
DocTitoloOggettoPublished(CET)
1 Event Notes - Pirelli Preview ↗ 2024-10-24 08:34
2024-10-24 08:34 CET
2 Post-Gara Checks on Car 63, United States GP ↗ 63 George Russell 2024-10-24 08:35
63 George Russell 2024-10-24 08:35 CET
3 Gara Director's Event Notes ↗ 2024-10-24 19:33
2024-10-24 19:33 CET
4 Event Notes - Circuito Map, Pit Lane Drawing and Red Zones ↗ 2024-10-24 19:39
2024-10-24 19:39 CET
5 Car Display Procedure ↗ 2024-10-24 23:42
2024-10-24 23:42 CET
6 PU elements usati per driver up to now ↗ 2024-10-25 17:22
2024-10-25 17:22 CET
7 RNCs usati per driver up to now ↗ 2024-10-25 17:24
2024-10-25 17:24 CET
8 Self Scrutineering ↗ 2024-10-25 17:24
2024-10-25 17:24 CET
9 Car Presentation Submissions ↗ 2024-10-25 18:00
2024-10-25 18:00 CET
10 Entry List ↗ 2024-10-25 18:30
2024-10-25 18:30 CET
11 New RNCs for this Competition ↗ 2024-10-25 21:20
2024-10-25 21:20 CET
12 Summons - Car 97 - Alleged overtaking under yellow flags ↗ Robert Shwartzman #97 2024-10-25 22:02
Robert Shwartzman #97 2024-10-25 22:02 CET
13 Summons - Car 23 - Turn 9 Incident with car 38 ↗ 23 Alexander Albon 2024-10-25 22:02
23 Alexander Albon 2024-10-25 22:02 CET
14 Summons - Car 38 - Turn 9 Incident with car 23 ↗ 50 Oliver Bearman 2024-10-25 22:02
50 Oliver Bearman 2024-10-25 22:02 CET
15 Additional specification of dry-weather tyres ↗ 2024-10-25 21:44
2024-10-25 21:44 CET
16 P1 Classification ↗ 2024-10-25 21:50
2024-10-25 21:50 CET
17 Decision - Car 97 - Overtaking under yellow flags ↗ Robert Shwartzman #97 2024-10-25 22:30
Robert Shwartzman #97 2024-10-25 22:30 CET
18 Decision - Car 38 - Turn 9 incident ↗ 50 Oliver Bearman 2024-10-25 22:33
50 Oliver Bearman 2024-10-25 22:33 CET
19 Decision - Car 23 - Turn 9 incident ↗ 23 Alexander Albon 2024-10-25 22:33
23 Alexander Albon 2024-10-25 22:33 CET
20 P2 Classification ↗ 2024-10-26 01:50
2024-10-26 01:50 CET
21 Gara Director's Note - SC2-SC1 Time ↗ 2024-10-26 02:21
2024-10-26 02:21 CET
22 P1 and P2 Scrutineering ↗ 2024-10-26 03:42
2024-10-26 03:42 CET
24 Post-Qualifiche Procedure V2 ↗ 2024-10-26 17:17
2024-10-26 17:17 CET
25 Curfew ↗ 2024-10-26 19:12
2024-10-26 19:12 CET
26 Self Scrutineering ↗ 2024-10-26 19:13
2024-10-26 19:13 CET
27 New RNCs for this Competition ↗ 2024-10-26 19:58
2024-10-26 19:58 CET
28 New PU elements for this Competition ↗ 2024-10-26 19:59
2024-10-26 19:59 CET
29 P3 Classification ↗ 2024-10-26 20:49
2024-10-26 20:49 CET
30 Qualifiche SC2-SC1 Times ↗ 2024-10-27 00:15
2024-10-27 00:15 CET
31 Qualifiche Deleted Giro Times ↗ 2024-10-27 00:18
2024-10-27 00:18 CET
32 Provisional Qualifiche Classification ↗ 2024-10-27 00:30
2024-10-27 00:30 CET
33 P3 and Qualifiche Scrutineering ↗ 2024-10-27 02:22
2024-10-27 02:22 CET
34 Final Qualifiche Classification ↗ 2024-10-27 02:25
2024-10-27 02:25 CET
35 Provisional Starting Griglia ↗ 2024-10-27 02:31
2024-10-27 02:31 CET
36 Pre-Gara Procedure ↗ 2024-10-27 16:41
2024-10-27 16:41 CET
37 Post-Gara Procedure ↗ 2024-10-27 16:46
2024-10-27 16:46 CET
38 Parc Fermé Issues ↗ 2024-10-27 17:45
2024-10-27 17:45 CET
39 Infringement - Car 31 - Changes made during Parc Ferme ↗ 31 Esteban Ocon 2024-10-27 18:52
31 Esteban Ocon 2024-10-27 18:52 CET
40 Parts and Parameters been replaced and or changed during Parc Fermé ↗ 2024-10-27 18:55
2024-10-27 18:55 CET
41 Final Starting Griglia ↗ 2024-10-27 19:00
2024-10-27 19:00 CET
42 Infringement - Car 11 - False Start ↗ 11 Sergio Pérez 2024-10-27 22:29
11 Sergio Pérez 2024-10-27 22:29 CET
44 Infringement - Car 1 - Turn 8 Leaving the track and gaining an advantage ↗ 1 Max Verstappen 2024-10-27 22:58
1 Max Verstappen 2024-10-27 22:58 CET
45 Decision - Car 11 - Alleged leaving the track and forcing a driver off the track ↗ 11 Sergio Pérez 2024-10-27 22:59
11 Sergio Pérez 2024-10-27 22:59 CET
46 Provisional Gara Classification ↗ 2024-10-27 23:15
2024-10-27 23:15 CET
47 Infringement - Car 1 - Turn 4 Forcing another driver of the track (corrected) ↗ 1 Max Verstappen 2024-10-27 23:40
1 Max Verstappen 2024-10-27 23:40 CET
48 Infringement - Gara Deleted Giro Times ↗ 2024-10-27 23:40
2024-10-27 23:40 CET
49 Decision - Car 11 - Alleged forcing another driver off the track ↗ 11 Sergio Pérez 2024-10-27 23:52
11 Sergio Pérez 2024-10-27 23:52 CET
50 Infringement - Car 43 - Causing a collision ↗ 43 Franco Colapinto 2024-10-27 23:54
43 Franco Colapinto 2024-10-27 23:54 CET
51 Gara Scrutineering ↗ 2024-10-28 00:51
2024-10-28 00:51 CET
FIA official decisions and documents (fia.com) · PDF original PDF links
Record Basis · Calculation basis
Gara order is the final classification(post-race penalties applied) · le qualifiche session data 2003+ · lap times 1996+ · pit stops 2012+ (pit-lane transit, not stationary time) · Ritiro = Finished(Finished·+N Giri) non-Finished statuses
Fonti dei dati: Jolpica-F1 (Ergast compatible API) · weather·Direzione gara OpenF1 (2023+) · Last fetched: 2026-09-05 23:38